Weather History for CXRB - October, 2011

Change the Weather History Date:

Wednesday, October 26, 2011

  Actual Average Record
Temperature  
Mean Temperature -7 °F -  
Max Temperature -2 °F - - ()
Min Temperature -12 °F - - ()
Degree Days  
Heating Degree Days 72    
Moisture  
Dew Point -10 °F    
Average Humidity 83    
Maximum Humidity 87    
Minimum Humidity 73    
Precipitation  
Precipitation 0.00 in - - ()
Sea Level Pressure  
Sea Level Pressure 29.76 in    
Wind  
Wind Speed 6 mph ()    
Max Wind Speed 10 mph    
Max Gust Speed -    
T = Trace of Precipitation, MM = Missing Value Source: Averaged Metar Reports

Daily Weather History Graph

Daily Weather History Graph

Search for Another Location

Airport or City:

Trip Planner

Search our weather history database for the weather conditions in past years. The results will help you decide how hot, cold, wet, or windy it might be!

Date:

Astronomy

Oct. 26, 2011 Rise Set
Actual Time 9:19 AM MDT 2:46 PM MDT
Civil Twilight 7:38 AM MDT 4:27 PM MDT
Nautical Twilight 6:03 AM MDT 6:01 PM MDT
Astronomical Twilight 4:30 AM MDT 7:33 PM MDT
Moon No Moon Rise No Moon Set
Length of Visible Light 8h 48m
Length of Day
5h 27m
Waning Crescent, 0% of the Moon is Illuminated
Oct 26
Waning Crescent
Oct 26
New
Nov 2
First Quarter
Nov 10
Full
Nov 18
Last Quarter

Hourly Weather History & Observations

Time (MDT) Temp. Windchill Dew Point Humidity Pressure Visibility Wind Dir Wind Speed Gust Speed Precip Events Conditions
12:00 AM -1 °F - -4 °F 79% 29.65 in - West 9.2 mph - -  
12:00 AM -1.1 °F -16.6 °F -4.2 °F 87% 29.65 in - West 9.2 mph - N/A   Unknown
1:00 AM -2.7 °F -17.5 °F -6.0 °F 86% 29.67 in - WSW 8.1 mph - N/A   Unknown
2:00 AM -2.2 °F -18.9 °F -5.4 °F 86% 29.68 in - WSW 10.4 mph - N/A   Unknown
3:00 AM -4.0 °F -17.8 °F -7.4 °F 85% 29.69 in - West 6.9 mph - N/A   Unknown
4:00 AM -5.6 °F -18.2 °F -9.2 °F 84% 29.71 in - West 5.8 mph - N/A   Unknown
5:00 AM -5.4 °F -16.2 °F -9.0 °F 84% 29.72 in - West 4.6 mph - N/A   Unknown
6:00 AM -6 °F - -10 °F 74% 29.73 in - West 8.1 mph - -  
6:00 AM -6.3 °F -21.9 °F -9.9 °F 84% 29.73 in - West 8.1 mph - N/A   Unknown
7:00 AM -6.9 °F -23.7 °F -10.5 °F 84% 29.74 in - West 9.2 mph - N/A   Unknown
8:00 AM -9.4 °F -22.7 °F -13.4 °F 83% 29.75 in - West 5.8 mph - N/A   Unknown
9:00 AM -10.5 °F -24.0 °F -14.6 °F 82% 29.76 in - West 5.8 mph - N/A   Unknown
10:00 AM -11.0 °F -22.8 °F -15.2 °F 82% 29.77 in - WNW 4.6 mph - N/A   Unknown
11:00 AM -11.2 °F -20.6 °F -15.3 °F 82% 29.79 in - West 3.5 mph - N/A   Unknown
12:00 PM -11 °F - -15 °F 73% 29.79 in - West 4.6 mph - -  
12:00 PM -10.8 °F -22.5 °F -15.0 °F 82% 29.79 in - West 4.6 mph - N/A   Unknown
1:00 PM -11.2 °F -20.6 °F -15.3 °F 82% 29.80 in - West 3.5 mph - N/A   Unknown
2:00 PM -8.3 °F -21.4 °F -12.3 °F 83% 29.81 in - WNW 5.8 mph - N/A   Unknown
3:00 PM -10.7 °F -20.0 °F -15.0 °F 81% 29.82 in - NNW 3.5 mph - N/A   Unknown
4:00 PM -10.5 °F -19.8 °F -14.6 °F 82% 29.82 in - NNW 3.5 mph - N/A   Unknown
5:00 PM -11.0 °F -26.2 °F -15.3 °F 81% 29.82 in - North 6.9 mph - N/A   Unknown
6:00 PM -6 °F - -10 °F 76% 29.82 in - North 9.2 mph - -  
6:00 PM -6.0 °F -22.6 °F -9.6 °F 84% 29.82 in - North 9.2 mph - N/A   Unknown
7:00 PM -4.2 °F -18.0 °F -7.6 °F 85% 29.81 in - North 6.9 mph - N/A   Unknown
8:00 PM -3.1 °F -16.7 °F -6.5 °F 85% 29.80 in - North 6.9 mph - N/A   Unknown
9:00 PM -3.5 °F -18.4 °F -6.9 °F 85% 29.79 in - North 8.1 mph - N/A   Unknown
10:00 PM -2.6 °F -19.4 °F -5.8 °F 86% 29.78 in - North 10.4 mph - N/A   Unknown
11:00 PM -2.9 °F -17.7 °F -6.3 °F 85% 29.77 in - North 8.1 mph - N/A   Unknown